Location: Bratsk-Energetik
(56.3300°N, 101.7600°E)
Time: 23:42:35
(UTC+08:00)

ISS - Pass Details

Date: 13 May 2021
Orbit: 417 x 422 km, 51.6° (Epoch: 13 June)

Event Time Altitude Azimuth Distance (km) Brightness Sun altitude
Exits shadow 01:52:36 33° 198° (SSW) 733 -3.1 -14.8°
Maximum altitude 01:53:11 36° 174° (S) 691 -3.2 -14.8°
Drops below altitude 10° 01:56:19 10° 106° (ESE) 1,508 -1.0 -14.7°
Sets 01:58:30 0° 98° (E) 2,374 0.1 -14.6°
